W0KHZ Weather Reports


Display with metric or nautical units.
time (UTC)temp
F
wind
direction
speed
MPH
gust
MPH
rain 1hr
in
rain 24hr
in
rain mn
in
humidity
%
barometer
mb
20260503204538 74 304 3.0 9.0 0.00 0.00 0.00 32 1002.3
20260503204016 74 297 4.0 15.0 0.00 0.00 0.00 31 1002.3
20260503203534 74 310 6.0 17.0 0.00 0.00 0.00 30 1002.2
20260503203051 74 305 4.0 14.0 0.00 0.00 0.00 33 1002.3
20260503202529 74 334 4.0 8.0 0.00 0.00 0.00 34 1002.4
20260503202027 74 331 5.0 9.0 0.00 0.00 0.00 35 1002.4
20260503201526 74 330 4.0 10.0 0.00 0.00 0.00 33 1002.4
20260503201024 74 297 7.0 18.0 0.00 0.00 0.00 34 1002.3
20260503200542 74 292 3.0 9.0 0.00 0.00 0.00 36 1002.3
20260503200021 74 305 2.0 7.0 0.00 0.00 0.00 36 1002.3
20260503195619 74 309 2.0 8.0 0.00 0.00 0.00 36 1002.5
20260503195037 74 313 3.0 8.0 0.00 0.00 0.00 35 1002.5
20260503194536 74 281 3.0 8.0 0.00 0.00 0.00 36 1002.4
20260503194033 74 271 2.0 10.0 0.00 0.00 0.00 36 1002.5
20260503193531 74 301 3.0 8.0 0.00 0.00 0.00 37 1002.4
20260503193109 73 273 2.0 6.0 0.00 0.00 0.00 37 1002.5
20260503192527 73 287 3.0 11.0 0.00 0.00 0.00 37 1002.6
20260503192025 73 270 5.0 13.0 0.00 0.00 0.00 38 1002.5
20260503191524 73 244 4.0 13.0 0.00 0.00 0.00 39 1002.6
20260503191022 73 233 2.0 8.0 0.00 0.00 0.00 39 1002.7
20260503190520 73 327 3.0 8.0 0.00 0.00 0.00 39 1002.7
20260503190019 73 230 3.0 8.0 0.00 0.00 0.00 41 1002.7
20260503185517 73 185 5.0 10.0 0.00 0.00 0.00 42 1002.8
20260503185015 72 170 2.0 6.0 0.00 0.00 0.00 42 1002.8
20260503184533 72 166 2.0 4.0 0.00 0.00 0.00 40 1002.9
20260503184050 72 238 3.0 7.0 0.00 0.00 0.00 41 1002.9
20260503183529 72 318 3.0 8.0 0.00 0.00 0.00 39 1003.0
20260503183107 71 310 3.0 7.0 0.00 0.00 0.00 41 1003.0
20260503182526 71 175 3.0 6.0 0.00 0.00 0.00 43 1003.1
20260503182024 71 185 3.0 9.0 0.00 0.00 0.00 42 1003.2
20260503181522 71 156 3.0 7.0 0.00 0.00 0.00 43 1003.2
20260503181020 70 211 2.0 6.0 0.00 0.00 0.00 43 1003.3
20260503180518 70 267 1.0 6.0 0.00 0.00 0.00 42 1003.3
20260503180017 70 167 4.0 10.0 0.00 0.00 0.00 44 1003.5
20260503175535 69 163 3.0 7.0 0.00 0.00 0.00 43 1003.5
20260503175032 69 177 3.0 6.0 0.00 0.00 0.00 43 1003.7
20260503174530 68 206 2.0 3.0 0.00 0.00 0.00 43 1003.5
20260503174028 69 284 2.0 6.0 0.00 0.00 0.00 41 1003.8
20260503173527 68 175 2.0 6.0 0.00 0.00 0.00 43 1003.6
20260503173025 68 165 3.0 8.0 0.00 0.00 0.00 44 1003.7
20260503172523 68 159 4.0 7.0 0.00 0.00 0.00 44 1003.6
20260503172021 68 159 4.0 8.0 0.00 0.00 0.00 44 1003.6
20260503171520 68 208 2.0 6.0 0.00 0.00 0.00 44 1003.7
20260503171018 67 158 2.0 6.0 0.00 0.00 0.00 43 1003.8
20260503170516 67 171 2.0 7.0 0.00 0.00 0.00 44 1004.0
20260503150530 63 154 5.0 10.0 0.00 0.00 0.00 47 1004.6
20260503131047 57 147 4.0 11.0 0.00 0.00 0.00 57 1005.3
20260503130545 56 144 4.0 9.0 0.00 0.00 0.00 58 1005.2
20260503110520 54 139 4.0 7.0 0.00 0.00 0.00 54 1005.6
20260503081517 53 85 0.0 1.0 0.00 0.00 0.00 47 1007.8
20260503081035 53 85 0.0 1.0 0.00 0.00 0.00 47 1007.9
20260503080553 53 89 0.0 3.0 0.00 0.00 0.00 48 1007.8
20260503072518 54 134 2.0 6.0 0.00 0.00 0.00 46 1008.2
20260503072016 54 203 1.0 6.0 0.00 0.00 0.00 46 1008.2
20260503071535 54 174 1.0 4.0 0.00 0.00 0.00 46 1008.4
20260503071032 54 119 1.0 4.0 0.00 0.00 0.00 46 1008.3
20260503070530 54 336 1.0 2.0 0.00 0.00 0.00 46 1008.5
20260503055023 53 81 2.0 3.0 0.00 0.00 0.00 48 1009.1
20260503054521 53 116 2.0 4.0 0.00 0.00 0.00 48 1009.2
20260503054019 53 114 2.0 3.0 0.00 0.00 0.00 48 1009.2
20260503053517 53 141 1.0 3.0 0.00 0.00 0.00 48 1009.2
20260503053036 53 123 2.0 7.0 0.00 0.00 0.00 49 1009.2
20260503052554 53 94 1.0 3.0 0.00 0.00 0.00 49 1009.2
20260503052031 53 87 0.0 3.0 0.00 0.00 0.00 49 1009.2
20260503051549 53 62 1.0 4.0 0.00 0.00 0.00 50 1009.3
20260503051028 53 59 0.0 2.0 0.00 0.00 0.00 49 1009.3
20260503050526 53 65 1.0 2.0 0.00 0.00 0.00 49 1009.3
20260503050024 53 83 2.0 3.0 0.00 0.00 0.00 49 1009.3
20260503045522 53 35 1.0 2.0 0.00 0.00 0.00 49 1009.3
20260503045021 53 0.0 0.0 0.00 0.00 0.00 49 1009.3
20260503044519 53 81 2.0 3.0 0.00 0.00 0.00 50 1009.3
20260503044017 53 96 1.0 3.0 0.00 0.00 0.00 50 1009.4
20260503043515 53 76 1.0 3.0 0.00 0.00 0.00 50 1009.5
20260503043053 52 105 1.0 3.0 0.00 0.00 0.00 52 1009.6
20260503042530 51 245 0.0 2.0 0.00 0.00 0.00 55 1009.5
20260503042029 51 218 1.0 3.0 0.00 0.00 0.00 55 1009.6
20260503041527 51 218 0.0 3.0 0.00 0.00 0.00 56 1009.6
20260503041026 50 218 1.0 3.0 0.00 0.00 0.00 57 1009.7
20260503040524 50 218 0.0 2.0 0.00 0.00 0.00 58 1009.6
20260503040022 51 0.0 0.0 0.00 0.00 0.00 58 1009.6
20260503035520 51 0.0 0.0 0.00 0.00 0.00 57 1009.7
20260503035019 51 0.0 0.0 0.00 0.00 0.00 55 1009.7
20260503034517 51 0.0 0.0 0.00 0.00 0.00 58 1009.9
20260503034035 51 0.0 0.0 0.00 0.00 0.00 58 1010.0
20260503033533 51 0.0 0.0 0.00 0.00 0.00 58 1010.0
20260503033050 51 0.0 0.0 0.00 0.00 0.00 57 1009.9
20260503032529 51 0.0 0.0 0.00 0.00 0.00 57 1010.0
20260503032047 51 0.0 0.0 0.00 0.00 0.00 56 1010.0
20260503031525 51 0.0 0.0 0.00 0.00 0.00 55 1010.3
20260503031024 51 0.0 0.0 0.00 0.00 0.00 56 1010.3
20260503030522 51 0.0 0.0 0.00 0.00 0.00 57 1010.3
20260503030020 52 0.0 0.0 0.00 0.00 0.00 55 1010.4
20260503025518 52 0.0 0.0 0.00 0.00 0.00 54 1010.3
20260503025016 52 0.0 0.0 0.00 0.00 0.00 55 1010.4
20260503024535 52 0.0 0.0 0.00 0.00 0.00 53 1010.4
20260503024032 52 0.0 0.0 0.00 0.00 0.00 53 1010.4
20260503023530 52 0.0 0.0 0.00 0.00 0.00 53 1010.5
20260503023028 52 0.0 0.0 0.00 0.00 0.00 53 1010.3
20260503022526 52 0.0 0.0 0.00 0.00 0.00 54 1010.5
20260503022045 53 0.0 0.0 0.00 0.00 0.00 53 1010.5
20260503021523 53 0.0 0.0 0.00 0.00 0.00 52 1010.5
20260503021022 53 0.0 0.0 0.00 0.00 0.00 53 1010.5
20260503020540 54 0.0 0.0 0.00 0.00 0.00 52 1010.5
20260503020018 54 0.0 0.0 0.00 0.00 0.00 51 1010.4
20260503015516 54 0.0 0.0 0.00 0.00 0.00 50 1010.4
20260503015034 54 0.0 0.0 0.00 0.00 0.00 50 1010.4
20260503014531 55 0.0 0.0 0.00 0.00 0.00 49 1010.4
20260503014029 55 0.0 0.0 0.00 0.00 0.00 47 1010.4
20260503013527 56 0.0 0.0 0.00 0.00 0.00 46 1010.4
20260503013025 56 0.0 0.0 0.00 0.00 0.00 46 1010.3
20260503012523 57 0.0 0.0 0.00 0.00 0.00 44 1010.5
20260503012022 57 0.0 0.0 0.00 0.00 0.00 45 1010.4
20260503011520 58 0.0 0.0 0.00 0.00 0.00 44 1010.5
20260503011018 59 0.0 0.0 0.00 0.00 0.00 40 1010.4
20260503010517 60 0.0 0.0 0.00 0.00 0.00 38 1010.4
20260503010035 60 218 0.0 2.0 0.00 0.00 0.00 37 1010.4
20260503005532 60 0.0 0.0 0.00 0.00 0.00 37 1010.4
20260503005030 60 0.0 0.0 0.00 0.00 0.00 37 1010.5
20260503004528 60 0.0 0.0 0.00 0.00 0.00 36 1010.4
20260503004026 60 0.0 0.0 0.00 0.00 0.00 36 1010.5
20260503003524 60 219 0.0 2.0 0.00 0.00 0.00 35 1010.5
20260503003023 61 219 0.0 1.0 0.00 0.00 0.00 35 1010.6
20260503002521 61 219 0.0 1.0 0.00 0.00 0.00 35 1010.5
20260503002039 61 219 1.0 2.0 0.00 0.00 0.00 35 1010.6
20260503001517 61 220 1.0 3.0 0.00 0.00 0.00 35 1010.6
20260503001035 61 235 1.0 3.0 0.00 0.00 0.00 34 1010.6
20260503000532 61 260 1.0 3.0 0.00 0.00 0.00 34 1010.8
20260503000030 62 229 2.0 3.0 0.00 0.00 0.00 34 1010.8
20260502235528 62 261 1.0 6.0 0.00 0.00 0.00 34 1010.9
20260502235026 62 317 2.0 6.0 0.00 0.00 0.00 34 1011.0
20260502234525 62 186 1.0 3.0 0.00 0.00 0.00 35 1011.0
20260502234023 62 204 2.0 8.0 0.00 0.00 0.00 34 1011.0
20260502233521 62 149 1.0 4.0 0.00 0.00 0.00 33 1011.1
20260502233019 62 195 1.0 4.0 0.00 0.00 0.00 33 1011.2
20260502232518 62 239 3.0 8.0 0.00 0.00 0.00 33 1011.3
20260502232016 63 298 2.0 4.0 0.00 0.00 0.00 33 1011.2
20260502231535 63 292 2.0 7.0 0.00 0.00 0.00 33 1011.3
20260502231032 63 207 1.0 3.0 0.00 0.00 0.00 33 1011.2
20260502230530 63 191 2.0 4.0 0.00 0.00 0.00 33 1011.2
20260502230028 64 213 2.0 11.0 0.00 0.00 0.00 33 1011.4
20260502225527 63 296 3.0 8.0 0.00 0.00 0.00 33 1011.4
20260502225025 63 301 1.0 7.0 0.00 0.00 0.00 33 1011.4
20260502224523 63 299 2.0 6.0 0.00 0.00 0.00 33 1011.5
20260502224041 63 203 2.0 7.0 0.00 0.00 0.00 33 1011.7
20260502223520 63 209 3.0 9.0 0.00 0.00 0.00 33 1011.7
20260502223018 63 196 2.0 8.0 0.00 0.00 0.00 33 1011.7
20260502222516 63 309 2.0 6.0 0.00 0.00 0.00 32 1011.8
20260502222034 64 311 2.0 8.0 0.00 0.00 0.00 33 1011.9
20260502221532 64 270 1.0 9.0 0.00 0.00 0.00 33 1012.0
20260502221030 64 237 3.0 8.0 0.00 0.00 0.00 33 1012.1
20260502220528 64 208 3.0 10.0 0.00 0.00 0.00 33 1012.1
20260502220026 64 205 3.0 9.0 0.00 0.00 0.00 32 1012.2
20260502215545 64 230 2.0 8.0 0.00 0.00 0.00 32 1012.2
20260502215023 64 165 3.0 7.0 0.00 0.00 0.00 33 1012.1
20260502214521 64 297 2.0 10.0 0.00 0.00 0.00 32 1012.2
20260502214019 64 291 2.0 6.0 0.00 0.00 0.00 32 1012.2
20260502213517 64 283 2.0 7.0 0.00 0.00 0.00 32 1012.3
20260502213136 65 319 3.0 9.0 0.00 0.00 0.00 32 1012.4
20260502212534 65 291 3.0 7.0 0.00 0.00 0.00 34 1012.4
20260502212051 64 183 2.0 6.0 0.00 0.00 0.00 34 1012.4
20260502211529 64 170 3.0 8.0 0.00 0.00 0.00 34 1012.5
20260502211027 64 182 2.0 9.0 0.00 0.00 0.00 33 1012.6
20260502210606 64 233 3.0 10.0 0.00 0.00 0.00 33 1012.8
20260502210023 64 211 3.0 11.0 0.00 0.00 0.00 32 1012.9
20260502205521 63 208 3.0 11.0 0.00 0.00 0.00 34 1012.9
20260502205020 63 208 3.0 8.0 0.00 0.00 0.00 32 1012.9